DW5852 Weather Reports


time (UTC)temp
F
wind
direction
speed
knots
gust
knots
rain 1hr
in
rain 24hr
in
rain mn
in
humidity
%
barometer
mb
20260505140214 49 258 0.0 0.0 0.00 0.00 0.00 52 1017.1
20260505130213 48 228 0.0 0.0 0.00 0.00 0.00 52 1017.8
20260505124713 49 229 0.0 0.0 0.00 0.00 0.00 51 1017.7
20260505124214 49 249 0.0 0.9 0.00 0.00 0.00 50 1017.8
20260505123713 49 226 0.0 0.0 0.00 0.00 0.00 51 1017.9
20260505123210 48 248 0.0 0.9 0.00 0.00 0.00 51 1017.9
20260505122711 48 258 0.0 0.9 0.00 0.00 0.00 51 1017.8
20260505122213 48 231 0.0 0.0 0.00 0.00 0.00 50 1017.9
20260505121713 48 70 0.0 0.0 0.00 0.00 0.00 49 1017.9
20260505121211 47 247 0.0 0.0 0.00 0.00 0.00 50 1017.9
20260505120710 48 233 0.0 0.0 0.00 0.00 0.00 49 1017.9
20260505120213 48 305 0.0 0.0 0.00 0.00 0.00 48 1017.8
20260505115710 48 322 0.0 0.0 0.00 0.00 0.00 47 1017.8
20260505115214 48 97 0.0 0.0 0.00 0.00 0.00 45 1017.9
20260505114713 48 82 0.0 0.0 0.00 0.00 0.00 45 1018.0
20260505114213 49 96 0.0 0.0 0.00 0.00 0.00 45 1018.1
20260505113710 49 327 0.0 0.0 0.00 0.00 0.00 44 1018.2
20260505113213 49 23 0.0 0.0 0.00 0.00 0.00 44 1018.2
20260505112714 49 94 0.0 0.0 0.00 0.00 0.00 43 1018.3
20260505112213 49 233 0.0 0.0 0.00 0.00 0.00 43 1018.2
20260505111710 49 270 0.0 0.0 0.00 0.00 0.00 43 1018.4
20260505111213 49 246 0.0 0.0 0.00 0.00 0.00 43 1018.5
20260505110714 49 234 0.0 0.0 0.00 0.00 0.00 44 1018.6
20260505110210 49 313 0.0 0.0 0.00 0.00 0.00 43 1018.6
20260505102214 49 339 0.0 3.5 0.00 0.00 0.00 45 1018.6
20260505101713 49 248 0.0 2.6 0.00 0.00 0.00 45 1018.6
20260505101214 49 300 0.0 1.7 0.00 0.00 0.00 45 1018.7
20260505100713 49 297 0.0 0.0 0.00 0.00 0.00 45 1018.7
20260505100210 49 20 0.0 2.6 0.00 0.00 0.00 44 1018.8
20260505095711 49 215 0.0 2.6 0.00 0.00 0.00 44 1019.0
20260505095213 50 273 0.0 5.2 0.00 0.00 0.00 44 1019.1
20260505094713 50 18 0.9 2.6 0.00 0.00 0.00 44 1019.0
20260505094210 50 335 0.0 9.6 0.00 0.00 0.00 43 1019.2
20260505093710 50 266 0.0 0.9 0.00 0.00 0.00 43 1019.2
20260505093210 50 235 0.0 2.6 0.00 0.00 0.00 43 1019.2
20260505092713 50 283 0.0 10.4 0.00 0.00 0.00 43 1019.5
20260505092213 50 319 0.9 2.6 0.00 0.00 0.00 43 1019.3
20260505091713 50 293 0.0 0.0 0.00 0.00 0.00 43 1019.4
20260505091213 50 276 0.0 0.0 0.00 0.00 0.00 42 1019.3
20260505090713 50 271 0.0 6.1 0.00 0.00 0.00 42 1019.3
20260505090210 50 293 0.0 0.0 0.00 0.00 0.00 41 1019.2
20260505085710 51 212 0.0 0.0 0.00 0.00 0.00 40 1019.5
20260505085210 51 252 0.0 0.0 0.00 0.00 0.00 38 1019.9
20260505084713 51 335 0.9 0.9 0.00 0.00 0.00 39 1020.1
20260505084213 52 183 0.0 11.3 0.00 0.00 0.00 36 1020.3
20260505083713 51 260 2.6 9.6 0.00 0.00 0.00 39 1020.1
20260505083213 51 262 0.0 3.5 0.00 0.00 0.00 38 1020.1
20260505082713 51 269 0.0 1.7 0.00 0.00 0.00 39 1020.1
20260505082213 51 246 0.0 13.0 0.00 0.00 0.00 39 1020.2
20260505081713 51 258 11.3 7.0 0.00 0.00 0.00 39 1020.5
20260505081210 52 255 0.0 4.3 0.00 0.00 0.00 39 1020.4
20260505080713 52 263 0.9 9.6 0.00 0.00 0.00 39 1020.4
20260505080213 52 248 1.7 9.6 0.00 0.00 0.00 38 1020.6
20260505075713 52 259 0.0 10.4 0.00 0.00 0.00 38 1020.5
20260505075213 52 248 0.0 8.7 0.00 0.00 0.00 37 1020.4
20260505074714 52 293 0.0 9.6 0.00 0.00 0.00 37 1020.4
20260505074210 53 245 0.0 4.3 0.00 0.00 0.00 36 1020.4
20260505073713 53 212 0.9 13.9 0.00 0.00 0.00 36 1020.6
20260505073213 53 228 0.0 13.9 0.00 0.00 0.00 36 1020.4
20260505072713 53 293 0.0 11.3 0.00 0.00 0.00 35 1020.3
20260505072210 53 248 0.0 3.5 0.00 0.00 0.00 35 1020.4
20260505071714 53 262 0.9 6.1 0.00 0.00 0.00 35 1020.4
20260505071210 53 264 0.0 10.4 0.00 0.00 0.00 34 1020.6
20260505070714 53 209 0.0 6.1 0.00 0.00 0.00 34 1020.6
20260505070213 53 250 0.0 4.3 0.00 0.00 0.00 34 1020.8
20260505065713 53 246 0.0 0.9 0.00 0.00 0.00 34 1021.1
20260505065213 54 273 0.0 7.0 0.00 0.00 0.00 33 1021.0
20260505064711 54 226 0.0 2.6 0.00 0.00 0.00 33 1021.1
20260505064210 54 241 0.0 0.0 0.00 0.00 0.00 33 1021.1
20260505063713 54 236 0.0 5.2 0.00 0.00 0.00 32 1021.1
20260505063213 54 256 0.0 3.5 0.00 0.00 0.00 32 1021.4
20260505062713 55 249 0.0 0.9 0.00 0.00 0.00 32 1021.4
20260505062210 55 253 0.0 0.0 0.00 0.00 0.00 31 1021.2
20260505061710 55 245 0.0 5.2 0.00 0.00 0.00 31 1021.3
20260505061210 55 248 0.0 7.8 0.00 0.00 0.00 31 1021.4
20260505060713 55 241 0.0 5.2 0.00 0.00 0.00 32 1021.4
20260505060210 55 249 0.0 0.0 0.00 0.00 0.00 33 1021.4
20260505055714 55 229 0.0 2.6 0.00 0.00 0.00 33 1021.3
20260505055213 55 258 0.0 0.9 0.00 0.00 0.00 34 1021.2
20260505054710 55 218 0.0 0.0 0.00 0.00 0.00 34 1021.4
20260505054210 55 253 0.0 0.0 0.00 0.00 0.00 36 1021.5
20260505053710 55 256 0.0 0.0 0.00 0.00 0.00 35 1021.5
20260505053210 56 249 0.0 0.0 0.00 0.00 0.00 35 1021.3
20260505052713 56 233 0.0 0.0 0.00 0.00 0.00 35 1021.2
20260505052210 56 218 0.0 0.0 0.00 0.00 0.00 35 1021.3
20260505051713 56 244 0.0 0.9 0.00 0.00 0.00 35 1021.4
20260505051213 56 267 0.0 0.9 0.00 0.00 0.00 36 1021.3
20260505050713 56 142 0.0 0.0 0.00 0.00 0.00 36 1021.3
20260505050213 56 97 0.0 0.0 0.00 0.00 0.00 35 1021.3
20260505041714 57 246 0.0 0.0 0.00 0.00 0.00 32 1021.4
20260505041213 57 245 0.0 0.0 0.00 0.00 0.00 33 1021.4
20260505040710 57 173 0.0 0.0 0.00 0.00 0.00 33 1021.4
20260505040210 57 225 0.0 0.0 0.00 0.00 0.00 33 1021.4
20260505035710 57 253 0.0 0.0 0.00 0.00 0.00 32 1021.6
20260505035210 57 203 0.0 0.0 0.00 0.00 0.00 32 1021.6
20260505034711 57 280 0.0 0.0 0.00 0.00 0.00 32 1021.5
20260505034213 57 276 0.0 0.9 0.00 0.00 0.00 31 1021.5
20260505033710 57 319 0.0 0.0 0.00 0.00 0.00 31 1021.5
20260505033210 57 253 0.0 0.0 0.00 0.00 0.00 31 1021.4
20260505032713 57 253 0.0 0.9 0.00 0.00 0.00 31 1021.4
20260505032213 57 262 0.0 0.0 0.00 0.00 0.00 31 1021.3
20260505031713 57 38 0.0 0.0 0.00 0.00 0.00 30 1021.3
20260505031213 57 190 0.0 0.0 0.00 0.00 0.00 29 1021.2
20260505030710 58 3 0.0 0.0 0.00 0.00 0.00 29 1021.2
20260505030210 58 253 0.0 0.0 0.00 0.00 0.00 28 1021.1
20260505025713 58 338 0.0 0.0 0.00 0.00 0.00 29 1021.2
20260505025213 58 324 0.0 0.0 0.00 0.00 0.00 28 1021.1
20260505024711 58 252 0.0 0.0 0.00 0.00 0.00 28 1021.2
20260505024210 58 281 0.0 0.0 0.00 0.00 0.00 27 1020.9
20260505023710 58 180 0.0 0.0 0.00 0.00 0.00 27 1021.0
20260505023211 59 103 0.0 1.7 0.00 0.00 0.00 27 1020.9
20260505022710 59 253 0.0 0.9 0.00 0.00 0.00 26 1020.9
20260505022213 59 258 0.0 0.0 0.00 0.00 0.00 26 1020.8
20260505021713 59 243 0.0 4.3 0.00 0.00 0.00 26 1020.7
20260505021210 59 256 1.7 1.7 0.00 0.00 0.00 26 1020.8
20260505020713 59 260 0.0 0.0 0.00 0.00 0.00 25 1020.9
20260505020210 59 68 0.0 0.0 0.00 0.00 0.00 24 1020.7
20260505015710 60 205 0.0 0.0 0.00 0.00 0.00 24 1020.7
20260505015213 60 273 0.0 0.0 0.00 0.00 0.00 24 1020.6
20260505014711 60 190 0.0 0.9 0.00 0.00 0.00 24 1020.6
20260505014213 60 212 0.0 0.9 0.00 0.00 0.00 23 1020.5
20260505013713 60 246 0.0 5.2 0.00 0.00 0.00 23 1020.3
20260505013210 61 255 0.0 0.9 0.00 0.00 0.00 22 1020.3
20260505012713 61 8 0.0 4.3 0.00 0.00 0.00 22 1020.2
20260505012213 61 253 0.0 8.7 0.00 0.00 0.00 22 1020.0
20260505011713 61 159 1.7 2.6 0.00 0.00 0.00 21 1020.0
20260505011213 61 232 0.0 7.0 0.00 0.00 0.00 21 1019.9
20260505010713 61 270 0.9 10.4 0.00 0.00 0.00 21 1019.9
20260505010210 62 248 5.2 11.3 0.00 0.00 0.00 20 1020.0
20260505005713 62 287 2.6 9.6 0.00 0.00 0.00 20 1019.9
20260505005213 62 263 6.1 12.2 0.00 0.00 0.00 20 1019.9
20260505004711 62 229 0.0 7.0 0.00 0.00 0.00 19 1019.9
20260505004210 63 263 0.0 10.4 0.00 0.00 0.00 19 1019.8
20260505003711 63 293 0.9 10.4 0.00 0.00 0.00 19 1019.8
20260505003213 63 253 0.0 11.3 0.00 0.00 0.00 19 1019.8
20260505002710 63 249 11.3 11.3 0.00 0.00 0.00 18 1019.7
20260505002210 63 262 0.0 6.1 0.00 0.00 0.00 18 1019.7
20260505001713 63 246 0.9 12.2 0.00 0.00 0.00 18 1019.6
20260505001213 63 252 10.4 12.2 0.00 0.00 0.00 18 1019.5
20260505000713 63 321 2.6 19.1 0.00 0.00 0.00 18 1019.5
20260505000211 63 267 2.6 11.3 0.00 0.00 0.00 19 1019.4
20260504235710 63 266 0.0 11.3 0.00 0.00 0.00 19 1019.5
20260504235213 63 259 1.7 8.7 0.00 0.00 0.00 19 1019.4
20260504234710 63 270 0.9 7.8 0.00 0.00 0.00 20 1019.4
20260504234213 63 290 0.9 8.7 0.00 0.00 0.00 20 1019.3
20260504233713 63 281 0.0 4.3 0.00 0.00 0.00 20 1019.3
20260504233213 64 210 0.9 6.1 0.00 0.00 0.00 20 1019.2
20260504232710 64 268 0.9 9.6 0.00 0.00 0.00 20 1019.2
20260504232213 64 246 0.0 3.5 0.00 0.00 0.00 20 1019.1
20260504231710 64 248 0.0 11.3 0.00 0.00 0.00 20 1019.1
20260504231210 64 302 0.0 10.4 0.00 0.00 0.00 20 1019.1
20260504230713 65 238 0.9 14.8 0.00 0.00 0.00 20 1019.1
20260504230213 65 262 0.0 6.1 0.00 0.00 0.00 21 1019.2
20260504225713 65 215 0.0 7.8 0.00 0.00 0.00 21 1019.1
20260504225210 66 267 0.0 1.7 0.00 0.00 0.00 21 1019.1
20260504224713 65 77 0.0 13.0 0.00 0.00 0.00 20 1019.0
20260504224210 66 270 0.0 5.2 0.00 0.00 0.00 19 1019.1
20260504223713 66 287 0.0 5.2 0.00 0.00 0.00 20 1019.0
20260504223210 65 269 0.9 4.3 0.00 0.00 0.00 20 1019.2
20260504222710 65 263 0.0 0.9 0.00 0.00 0.00 20 1019.2
20260504222213 64 309 0.0 12.2 0.00 0.00 0.00 20 1019.1
20260504221713 64 203 0.0 4.3 0.00 0.00 0.00 20 1019.1
20260504221213 63 257 0.0 8.7 0.00 0.00 0.00 20 1019.1
20260504220713 63 256 0.0 5.2 0.00 0.00 0.00 20 1019.0
20260504220213 63 252 0.9 14.8 0.00 0.00 0.00 20 1019.1
20260504215713 64 248 1.7 8.7 0.00 0.00 0.00 19 1019.1
20260504215213 63 252 0.0 9.6 0.00 0.00 0.00 19 1019.0
20260504214713 64 268 0.0 5.2 0.00 0.00 0.00 19 1019.1
20260504214213 64 9 0.0 10.4 0.00 0.00 0.00 19 1019.2
20260504213710 64 290 0.0 5.2 0.00 0.00 0.00 18 1019.2
20260504213210 64 284 0.0 5.2 0.00 0.00 0.00 18 1019.3
20260504212710 64 267 0.0 7.8 0.00 0.00 0.00 18 1019.3
20260504212210 65 245 0.0 0.9 0.00 0.00 0.00 17 1019.3
20260504211710 64 212 0.0 4.3 0.00 0.00 0.00 17 1019.3
20260504211213 63 266 0.0 7.0 0.00 0.00 0.00 17 1019.3
20260504210710 63 238 0.0 15.6 0.00 0.00 0.00 16 1019.4
20260504210213 64 263 0.0 11.3 0.00 0.00 0.00 16 1019.4
20260504205713 64 207 0.0 8.7 0.00 0.00 0.00 16 1019.4
20260504205213 64 259 0.0 3.5 0.00 0.00 0.00 15 1019.5
20260504204710 63 238 0.0 10.4 0.00 0.00 0.00 16 1019.4
20260504204213 63 236 0.0 13.9 0.00 0.00 0.00 15 1019.5
20260504203710 63 268 0.0 13.9 0.00 0.00 0.00 14 1019.5
20260504203213 64 243 0.0 14.8 0.00 0.00 0.00 14 1019.4
20260504202713 64 267 0.0 7.8 0.00 0.00 0.00 16 1019.6
20260504202210 64 281 0.0 7.8 0.00 0.00 0.00 15 1019.5
20260504201713 65 270 0.0 1.7 0.00 0.00 0.00 16 1019.5
20260504201213 65 232 0.0 0.9 0.00 0.00 0.00 16 1019.4
20260504200713 65 221 0.0 3.5 0.00 0.00 0.00 16 1019.4
20260504200213 65 238 0.0 2.6 0.00 0.00 0.00 16 1019.3
20260504195713 65 232 0.0 0.9 0.00 0.00 0.00 18 1019.2
20260504195210 65 200 0.0 1.7 0.00 0.00 0.00 16 1019.1
20260504194713 65 307 0.0 11.3 0.00 0.00 0.00 16 1019.1
20260504194210 65 253 0.0 2.6 0.00 0.00 0.00 16 1019.2
20260504193710 65 228 0.0 0.9 0.00 0.00 0.00 15 1019.1
20260504193210 65 311 0.0 15.6 0.00 0.00 0.00 16 1019.2
20260504192710 65 325 0.0 2.6 0.00 0.00 0.00 17 1019.1
20260504192210 66 274 0.0 1.7 0.00 0.00 0.00 19 1019.2
20260504191713 65 352 0.0 0.0 0.00 0.00 0.00 22 1019.0
20260504191210 65 259 0.9 3.5 0.00 0.00 0.00 21 1019.0
20260504190713 65 284 0.0 0.9 0.00 0.00 0.00 23 1019.0
20260504190210 64 290 0.0 0.0 0.00 0.00 0.00 24 1018.9
20260504185713 63 225 0.0 0.0 0.00 0.00 0.00 23 1018.9
20260504185213 63 248 0.0 0.0 0.00 0.00 0.00 23 1019.1
20260504184713 63 250 0.0 0.9 0.00 0.00 0.00 22 1019.1
20260504184213 63 235 0.0 6.1 0.00 0.00 0.00 22 1019.2
20260504183713 64 280 0.0 1.7 0.00 0.00 0.00 22 1019.0
20260504183210 62 234 0.0 0.0 0.00 0.00 0.00 23 1019.0
20260504182710 62 278 0.0 0.9 0.00 0.00 0.00 21 1019.3
20260504182210 62 327 0.0 0.0 0.00 0.00 0.00 24 1019.2
20260504181710 62 255 0.0 0.9 0.00 0.00 0.00 23 1019.3
20260504181210 62 259 0.0 1.7 0.00 0.00 0.00 22 1019.4
20260504180713 62 194 0.0 7.8 0.00 0.00 0.00 22 1019.4
20260504180210 63 253 0.9 2.6 0.00 0.00 0.00 21 1019.3
20260504175713 63 256 0.0 2.6 0.00 0.00 0.00 21 1019.4
20260504175213 63 226 0.0 2.6 0.00 0.00 0.00 23 1019.4
20260504174710 63 257 0.0 0.0 0.00 0.00 0.00 24 1019.5
20260504174213 63 163 0.0 0.9 0.00 0.00 0.00 26 1019.5
20260504173710 62 258 0.0 0.0 0.00 0.00 0.00 26 1019.5
20260504173213 62 315 0.0 0.0 0.00 0.00 0.00 27 1019.3
20260504172713 62 53 0.0 0.0 0.00 0.00 0.00 27 1019.3
20260504172210 62 262 0.0 0.9 0.00 0.00 0.00 29 1019.5
20260504171710 61 253 0.0 0.0 0.00 0.00 0.00 30 1019.5
20260504171213 61 278 0.0 0.0 0.00 0.00 0.00 30 1019.3
20260504170713 61 252 0.0 0.0 0.00 0.00 0.00 31 1019.2
20260504170213 61 242 0.0 0.0 0.00 0.00 0.00 31 1019.3
20260504160213 60 259 0.0 0.0 0.00 0.00 0.00 36 1019.5
20260504150710 56 207 0.0 0.0 0.00 0.00 0.00 42 1019.9
20260504150213 55 222 0.0 0.0 0.00 0.00 0.00 42 1019.8